Location: Home
(42.5358°N, 72.7383°W)
Time: 15:03:53
(UTC-04:00)

Kosmos-337 - Pass Details

Date: 03 July 2022
Orbit: 1467 x 1552 km, 74.0° (Epoch: 18 August)

Event Time Altitude Azimuth Distance (km) Brightness Sun altitude
Rises 01:03:46 0° 342° (NNW) 4,734 ? -24.5°
Reaches altitude 10° 01:06:59 10° 348° (NNW) 3,746 ? -24.4°
Maximum altitude 01:15:42 45° 60° (ENE) 2,012 ? -24.3°
Enters shadow 01:24:03 11° 130° (SE) 3,633 ? -24.2°
